sat.trackr.live / text

‹ back to catalog

MUOS-4

NORAD 40887 · 2015-044A

PAYLOAD ACTIVE UNKNOWN

§ Identity

Operator
Country
US
Launch date
2015-09-02
Launch site
AFETR
Launch vehicle
Mass (kg)
RCS (m²)
99.62

Purposes: comms

External: N2YO · Heavens-Above · Gunter

§ Orbital elements

Epoch: 2026-09-20T00:10:17.392800Z

Period
1,436.09 min
Inclination
4.5072°
Eccentricity
0.0052900
Mean motion
1.00272538 rev/d
Perigee alt
35,563.3 km
Apogee alt
36,009.4 km
Semi-major
42,164.5 km
B*
0.0000e+0
RAAN
42.6587°
Arg perigee
3.7139°
Mean anomaly
30.1006°
Rev number
4,051

§ Raw data

MUOS-41 40887U 15044A   26263.00714575 -.00000095  00000+0  00000+0 0  99922 40887   4.5072  42.6587 0052900   3.7139  30.1006  1.00272538 40516

JSON: /api/v1/satellites/40887 · /tle

For live sub-satellite position, see the globe view (requires WebGL).

§ Visibility from observer

Set your observer location to see the next 7 days of passes ≥ 10°. The values pass through the URL so the page stays shareable.

No JS? Fill the form by hand. The geolocation button needs JavaScript.